Change the Weather History Date:

Monday, May 26, 2014

  Actual Average (KESN) Record (KESN)
Temperature  
Mean Temperature 74 °F -  
Max Temperature 84 °F 73 °F 91 °F (2011)
Min Temperature 64 °F 54 °F 39 °F (1956)
Cooling Degree Days 9    
Growing Degree Days 24 (Base 50)    
Moisture  
Dew Point 58 °F    
Average Humidity 60    
Maximum Humidity 83    
Minimum Humidity 35    
Precipitation  
Precipitation 0.00 in - - ()
Sea Level Pressure  
Sea Level Pressure 30.07 in    
Wind  
Wind Speed 4 mph (SSW)    
Max Wind Speed 12 mph    
Max Gust Speed -    
Visibility 10 miles    
Events      
Averages and records for this station are not official NWS values.
T = Trace of Precipitation, MM = Missing Value Source: NWS Daily Summary

Daily Weather History Graph

Daily Weather History Graph

Search for Another Location

Airport or City:

Trip Planner

Search our weather history database for the weather conditions in past years. The results will help you decide how hot, cold, wet, or windy it might be!

Date:

Astronomy

May. 26, 2014 Rise Set
Actual Time 5:44 AM EDT 8:20 PM EDT
Civil Twilight 5:13 AM EDT 8:51 PM EDT
Nautical Twilight 4:35 AM EDT 9:30 PM EDT
Astronomical Twilight 3:51 AM EDT 10:13 PM EDT
Moon 4:23 AM EDT (5/26) 6:22 PM EDT (5/26)
Length of Visible Light 15h 38m
Length of Day
14h 36m
Waning Crescent, 5% of the Moon is Illuminated
May 26
Waning Crescent
May 28
New
Jun 5
First Quarter
Jun 13
Full
Jun 19
Last Quarter

Hourly Weather History & Observations

Time (EDT) Temp. Heat Index Dew Point Humidity Pressure Visibility Wind Dir Wind Speed Gust Speed Precip Events Conditions
12:04 AM 68.0 °F - 55.4 °F 64% 30.13 in 10.0 mi SSW 5.8 mph - N/A   Unknown
12:24 AM 68.0 °F - 55.4 °F 64% 30.12 in 10.0 mi SSW 5.8 mph - N/A   Unknown
1:04 AM 68.0 °F - 57.2 °F 68% 30.12 in 10.0 mi SSW 4.6 mph - N/A   Unknown
1:24 AM 68.0 °F - 59.0 °F 73% 30.12 in 10.0 mi SSW 3.5 mph - N/A   Unknown
1:44 AM 66.2 °F - 59.0 °F 78% 30.12 in 10.0 mi Calm Calm - N/A   Unknown
2:04 AM 66.2 °F - 59.0 °F 78% 30.12 in 10.0 mi Calm Calm - N/A   Unknown
2:24 AM 66.2 °F - 59.0 °F 78% 30.12 in 10.0 mi South 3.5 mph - N/A   Unknown
2:44 AM 64.4 °F - 59.0 °F 83% 30.12 in 10.0 mi South 3.5 mph - N/A   Unknown
3:04 AM 64.4 °F - 57.2 °F 77% 30.12 in 10.0 mi South 3.5 mph - N/A   Unknown
3:24 AM 64.4 °F - 57.2 °F 77% 30.11 in 10.0 mi South 3.5 mph - N/A   Unknown
3:44 AM 64.4 °F - 57.2 °F 77% 30.11 in 10.0 mi South 4.6 mph - N/A   Unknown
4:04 AM 64.4 °F - 57.2 °F 77% 30.12 in 10.0 mi South 3.5 mph - N/A   Unknown
4:24 AM 64.4 °F - 57.2 °F 77% 30.12 in 10.0 mi Calm Calm - N/A   Unknown
4:44 AM 64.4 °F - 59.0 °F 83% 30.11 in 10.0 mi South 3.5 mph - N/A   Unknown
5:04 AM 64.4 °F - 59.0 °F 83% 30.12 in 10.0 mi South 3.5 mph - N/A   Unknown
5:24 AM 64.4 °F - 59.0 °F 83% 30.12 in 10.0 mi Calm Calm - N/A   Unknown
5:44 AM 64.4 °F - 59.0 °F 83% 30.12 in 10.0 mi Calm Calm - N/A   Unknown
6:24 AM 64.4 °F - 59.0 °F 83% 30.12 in 10.0 mi Calm Calm - N/A   Unknown
6:44 AM 64.4 °F - 59.0 °F 83% 30.12 in 10.0 mi Calm Calm - N/A   Unknown
7:04 AM 66.2 °F - 59.0 °F 78% 30.12 in 10.0 mi SSW 3.5 mph - N/A   Unknown
7:24 AM 68.0 °F - 59.0 °F 73% 30.13 in 10.0 mi SW 3.5 mph - N/A   Unknown
7:44 AM 68.0 °F - 59.0 °F 73% 30.13 in 10.0 mi Calm Calm - N/A   Unknown
8:05 AM 68.0 °F - 59.0 °F 73% 30.13 in 10.0 mi SW 3.5 mph - N/A   Unknown
8:25 AM 69.8 °F - 59.0 °F 68% 30.13 in 10.0 mi SW 3.5 mph - N/A   Unknown
8:45 AM 71.6 °F - 59.0 °F 64% 30.13 in 10.0 mi West 3.5 mph - N/A   Unknown
9:05 AM 71.6 °F - 57.2 °F 60% 30.13 in 10.0 mi Calm Calm - N/A   Unknown
9:25 AM 71.6 °F - 59.0 °F 64% 30.13 in 10.0 mi Calm Calm - N/A   Unknown
9:45 AM 73.4 °F - 59.0 °F 61% 30.12 in 10.0 mi West 3.5 mph - N/A   Unknown
10:05 AM 73.4 °F - 59.0 °F 61% 30.12 in 10.0 mi SW 4.6 mph - N/A   Unknown
10:25 AM 75.2 °F - 57.2 °F 53% 30.12 in 10.0 mi WSW 4.6 mph - N/A   Unknown
10:45 AM 75.2 °F - 59.0 °F 57% 30.12 in 10.0 mi West 3.5 mph - N/A   Unknown
11:05 AM 77.0 °F - 59.0 °F 54% 30.12 in 10.0 mi West 4.6 mph - N/A   Unknown
11:25 AM 77.0 °F - 57.2 °F 50% 30.11 in 10.0 mi Calm Calm - N/A   Unknown
11:45 AM 78.8 °F - 59.0 °F 51% 30.10 in 10.0 mi WSW 5.8 mph - N/A   Unknown
12:05 PM 78.8 °F - 59.0 °F 51% 30.10 in 10.0 mi West 4.6 mph - N/A   Unknown
12:45 PM 80.6 °F 81.1 °F 59.0 °F 48% 30.08 in 10.0 mi WSW 5.8 mph - N/A   Unknown
1:05 PM 80.6 °F 81.1 °F 59.0 °F 48% 30.07 in 10.0 mi SSW 5.8 mph - N/A   Unknown
1:25 PM 80.6 °F 80.5 °F 55.4 °F 42% 30.06 in 10.0 mi SSW 5.8 mph - N/A   Unknown
1:45 PM 82.4 °F 82.5 °F 59.0 °F 45% 30.05 in 10.0 mi South 5.8 mph - N/A   Unknown
2:05 PM 82.4 °F 82.5 °F 59.0 °F 45% 30.05 in 10.0 mi South 5.8 mph - N/A   Unknown
2:25 PM 82.4 °F 82.9 °F 60.8 °F 48% 30.04 in 10.0 mi SSE 10.4 mph - N/A   Unknown
2:45 PM 82.4 °F 82.5 °F 59.0 °F 45% 30.03 in 10.0 mi South 6.9 mph - N/A   Unknown
3:05 PM 82.4 °F 82.5 °F 59.0 °F 45% 30.03 in 10.0 mi SSE 11.5 mph - N/A   Unknown
3:25 PM 82.4 °F 82.5 °F 59.0 °F 45% 30.02 in 10.0 mi SSE 8.1 mph - N/A   Unknown
3:45 PM 82.4 °F 82.5 °F 59.0 °F 45% 30.02 in 10.0 mi South 8.1 mph - N/A   Unknown
4:25 PM 84.2 °F 82.8 °F 53.6 °F 35% 30.00 in 10.0 mi SW 6.9 mph - N/A   Unknown
4:45 PM 82.4 °F 81.7 °F 55.4 °F 39% 29.99 in 10.0 mi SW 8.1 mph - N/A   Unknown
5:06 PM 82.4 °F 81.4 °F 53.6 °F 37% 29.99 in 10.0 mi SW 8.1 mph - N/A   Unknown
5:26 PM 82.4 °F 81.7 °F 55.4 °F 39% 29.99 in 10.0 mi SW 6.9 mph - N/A   Unknown
5:46 PM 80.6 °F 80.5 °F 55.4 °F 42% 29.99 in 10.0 mi WSW 3.5 mph - N/A   Unknown
6:06 PM 78.8 °F - 60.8 °F 54% 29.99 in 10.0 mi WNW 4.6 mph - N/A   Unknown
6:26 PM 78.8 °F - 60.8 °F 54% 29.98 in 10.0 mi Calm Calm - N/A   Unknown
6:46 PM 80.6 °F 80.5 °F 55.4 °F 42% 29.98 in 10.0 mi Calm Calm - N/A   Unknown
7:06 PM 80.6 °F 80.3 °F 53.6 °F 39% 29.98 in 10.0 mi Calm Calm - N/A   Unknown
7:26 PM 80.6 °F 80.3 °F 53.6 °F 39% 29.98 in 10.0 mi Calm Calm - N/A   Unknown
7:46 PM 78.8 °F - 53.6 °F 42% 29.98 in 10.0 mi Calm Calm - N/A   Unknown
8:26 PM 77.0 °F - 55.4 °F 47% 29.98 in 10.0 mi Calm Calm - N/A   Unknown
8:46 PM 73.4 °F - 57.2 °F 57% 29.99 in 10.0 mi Calm Calm - N/A   Unknown
9:06 PM 73.4 °F - 59.0 °F 61% 29.99 in 10.0 mi Calm Calm - N/A   Unknown
9:26 PM 77.0 °F - 57.2 °F 50% 29.99 in 10.0 mi SSW 4.6 mph - N/A   Unknown
9:46 PM 75.2 °F - 59.0 °F 57% 29.99 in 10.0 mi South 4.6 mph - N/A   Unknown
10:06 PM 73.4 °F - 60.8 °F 65% 29.99 in 10.0 mi South 5.8 mph - N/A   Unknown
10:26 PM 73.4 °F - 60.8 °F 65% 29.99 in 10.0 mi South 4.6 mph - N/A   Unknown
10:46 PM 73.4 °F - 60.8 °F 65% 29.99 in 10.0 mi South 4.6 mph - N/A   Unknown
11:06 PM 73.4 °F - 60.8 °F 65% 29.99 in 10.0 mi SSW 4.6 mph - N/A   Unknown
11:26 PM 75.2 °F - 60.8 °F 61% 29.99 in 10.0 mi SSW 5.8 mph - N/A   Unknown
11:46 PM 75.2 °F - 60.8 °F 61% 29.98 in 10.0 mi SSW 4.6 mph - N/A   Unknown